Time,TemperatureF,DewpointF,PressureIn,WindDirection,WindDirectionDegrees,WindSpeedMPH,WindSpeedGustMPH,Humidity,HourlyPrecipIn,Conditions,Clouds,dailyrainin,SoftwareType,DateUTC
2013-05-18 00:01:00,54.1,42.6,29.85,WSW,247,0.0,4.0,65,0.00,,,0.00,LWC V2.00 B2112,2013-05-18 07:01:00,
2013-05-18 00:06:00,54.2,42.3,29.85,WSW,247,0.0,0.0,64,0.00,,,0.00,LWC V2.00 B2112,2013-05-18 07:06:00,
2013-05-18 00:11:00,54.2,42.7,29.85,WSW,247,0.0,0.0,65,0.00,,,0.00,LWC V2.00 B2112,2013-05-18 07:11:00,
2013-05-18 00:16:00,54.1,43.0,29.85,WSW,247,0.0,0.0,66,0.00,,,0.00,LWC V2.00 B2112,2013-05-18 07:16:00,
2013-05-18 00:21:00,53.8,42.7,29.85,WSW,247,0.0,0.0,66,0.00,,,0.00,LWC V2.00 B2112,2013-05-18 07:21:00,
2013-05-18 00:26:00,53.3,43.4,29.85,WSW,247,0.0,0.0,69,0.00,,,0.00,LWC V2.00 B2112,2013-05-18 07:26:00,
2013-05-18 00:31:00,53.3,43.0,29.85,WSW,247,0.0,0.0,68,0.00,,,0.00,LWC V2.00 B2112,2013-05-18 07:31:00,
2013-05-18 00:36:00,53.2,43.3,29.85,WSW,247,0.0,0.0,69,0.00,,,0.00,LWC V2.00 B2112,2013-05-18 07:36:00,
2013-05-18 00:41:00,53.1,43.9,29.85,WSW,247,0.0,0.0,71,0.00,,,0.00,LWC V2.00 B2112,2013-05-18 07:41:00,
2013-05-18 00:46:00,52.9,42.6,29.85,WSW,247,0.0,0.0,68,0.00,,,0.00,LWC V2.00 B2112,2013-05-18 07:46:00,
2013-05-18 00:51:00,52.9,44.5,29.85,WSW,246,1.0,2.0,73,0.00,,,0.00,LWC V2.00 B2112,2013-05-18 07:51:00,
2013-05-18 00:56:00,52.8,43.7,29.85,WSW,246,0.0,0.0,71,0.00,,,0.00,LWC V2.00 B2112,2013-05-18 07:56:00,
2013-05-18 01:01:00,52.6,43.8,29.85,WSW,246,0.0,0.0,72,0.00,,,0.00,LWC V2.00 B2112,2013-05-18 08:01:00,
2013-05-18 01:06:00,52.8,43.3,29.85,WSW,246,0.0,0.0,70,0.00,,,0.00,LWC V2.00 B2112,2013-05-18 08:06:00,
2013-05-18 01:11:00,53.2,40.9,29.85,WSW,246,0.0,0.0,63,0.00,,,0.00,LWC V2.00 B2112,2013-05-18 08:11:00,
2013-05-18 01:16:00,53.2,44.0,29.85,WSW,246,0.0,0.0,71,0.00,,,0.00,LWC V2.00 B2112,2013-05-18 08:16:00,
2013-05-18 01:21:00,52.9,44.5,29.85,WSW,246,0.0,0.0,73,0.00,,,0.00,LWC V2.00 B2112,2013-05-18 08:21:00,
2013-05-18 01:26:00,52.8,43.3,29.85,WSW,246,0.0,0.0,70,0.00,,,0.00,LWC V2.00 B2112,2013-05-18 08:26:00,
2013-05-18 01:31:00,52.6,43.5,29.85,WSW,246,0.0,0.0,71,0.00,,,0.00,LWC V2.00 B2112,2013-05-18 08:31:00,
2013-05-18 01:36:00,52.8,42.5,29.85,WSW,246,0.0,0.0,68,0.00,,,0.00,LWC V2.00 B2112,2013-05-18 08:36:00,
2013-05-18 01:41:00,52.8,43.3,29.85,WSW,246,0.0,0.0,70,0.00,,,0.00,LWC V2.00 B2112,2013-05-18 08:41:00,
2013-05-18 01:46:00,52.8,43.3,29.85,WSW,246,0.0,0.0,70,0.00,,,0.00,LWC V2.00 B2112,2013-05-18 08:46:00,
2013-05-18 01:51:00,52.6,42.3,29.85,WSW,246,0.0,0.0,68,0.00,,,0.00,LWC V2.00 B2112,2013-05-18 08:51:00,
2013-05-18 01:56:00,52.6,43.5,29.85,WSW,246,0.0,0.0,71,0.00,,,0.00,LWC V2.00 B2112,2013-05-18 08:56:00,
2013-05-18 02:01:00,52.5,44.1,29.85,WSW,246,0.0,0.0,73,0.00,,,0.00,LWC V2.00 B2112,2013-05-18 09:01:00,
2013-05-18 02:06:00,52.2,43.4,29.85,WSW,246,0.0,1.0,72,0.00,,,0.00,LWC V2.00 B2112,2013-05-18 09:06:00,
2013-05-18 02:11:00,52.6,43.5,29.85,WSW,246,1.0,4.0,71,0.00,,,0.00,LWC V2.00 B2112,2013-05-18 09:11:00,
2013-05-18 02:16:00,52.3,43.9,29.85,WSW,246,0.0,0.0,73,0.00,,,0.00,LWC V2.00 B2112,2013-05-18 09:16:00,
2013-05-18 02:21:00,52.2,43.4,29.85,WSW,246,0.0,0.0,72,0.00,,,0.00,LWC V2.00 B2112,2013-05-18 09:21:00,
2013-05-18 02:26:00,52.2,44.2,29.85,WSW,246,0.0,0.0,74,0.00,,,0.00,LWC V2.00 B2112,2013-05-18 09:26:00,
2013-05-18 02:31:00,52.0,42.9,29.85,WSW,246,2.0,2.0,71,0.00,,,0.00,LWC V2.00 B2112,2013-05-18 09:31:00,
2013-05-18 02:36:00,52.0,42.9,29.85,WSW,246,0.0,0.0,71,0.00,,,0.00,LWC V2.00 B2112,2013-05-18 09:36:00,
2013-05-18 02:41:00,52.0,42.9,29.85,WSW,246,0.0,0.0,71,0.00,,,0.00,LWC V2.00 B2112,2013-05-18 09:41:00,
2013-05-18 02:46:00,51.9,43.9,29.85,WSW,246,0.0,0.0,74,0.00,,,0.00,LWC V2.00 B2112,2013-05-18 09:46:00,
2013-05-18 02:51:00,51.7,44.7,29.85,WSW,246,0.0,0.0,77,0.00,,,0.00,LWC V2.00 B2112,2013-05-18 09:51:00,
2013-05-18 02:56:00,51.6,44.3,29.85,WSW,246,0.0,0.0,76,0.00,,,0.00,LWC V2.00 B2112,2013-05-18 09:56:00,
2013-05-18 03:01:00,51.3,43.6,29.85,WSW,246,0.0,0.0,75,0.00,,,0.00,LWC V2.00 B2112,2013-05-18 10:01:00,
2013-05-18 03:06:00,51.1,43.8,29.85,WSW,246,0.0,0.0,76,0.00,,,0.00,LWC V2.00 B2112,2013-05-18 10:06:00,
2013-05-18 03:11:00,50.8,43.2,29.85,WSW,246,0.0,1.0,75,0.00,,,0.00,LWC V2.00 B2112,2013-05-18 10:11:00,
2013-05-18 03:16:00,50.8,43.9,29.86,WSW,246,0.0,0.0,77,0.00,,,0.00,LWC V2.00 B2112,2013-05-18 10:16:00,
2013-05-18 03:21:00,50.5,43.6,29.86,WSW,246,0.0,0.0,77,0.00,,,0.00,LWC V2.00 B2112,2013-05-18 10:21:00,
2013-05-18 03:26:00,50.1,42.8,29.86,WSW,246,0.0,0.0,76,0.00,,,0.00,LWC V2.00 B2112,2013-05-18 10:26:00,
2013-05-18 03:31:00,49.8,42.5,29.86,WSW,246,0.0,0.0,76,0.00,,,0.00,LWC V2.00 B2112,2013-05-18 10:31:00,
2013-05-18 03:36:00,49.4,42.8,29.86,WSW,246,0.0,1.0,78,0.00,,,0.00,LWC V2.00 B2112,2013-05-18 10:36:00,
2013-05-18 03:41:00,49.6,40.9,29.86,WSW,246,0.0,0.0,72,0.00,,,0.00,LWC V2.00 B2112,2013-05-18 10:41:00,
2013-05-18 03:46:00,49.2,41.6,29.86,WSW,246,1.0,2.0,75,0.00,,,0.00,LWC V2.00 B2112,2013-05-18 10:46:00,
2013-05-18 03:51:00,49.1,41.9,29.86,WSW,246,0.0,0.0,76,0.00,,,0.00,LWC V2.00 B2112,2013-05-18 10:51:00,
2013-05-18 03:56:00,48.6,41.4,29.86,WSW,246,0.0,0.0,76,0.00,,,0.00,LWC V2.00 B2112,2013-05-18 10:56:00,
2013-05-18 04:01:00,48.2,41.7,29.87,WSW,246,0.0,0.0,78,0.00,,,0.00,LWC V2.00 B2112,2013-05-18 11:01:00,
2013-05-18 04:06:00,47.9,41.7,29.87,WSW,246,0.0,0.0,79,0.00,,,0.00,LWC V2.00 B2112,2013-05-18 11:06:00,
2013-05-18 04:11:00,47.4,41.5,29.87,WSW,246,0.0,0.0,80,0.00,,,0.00,LWC V2.00 B2112,2013-05-18 11:11:00,
2013-05-18 04:16:00,47.0,41.2,29.87,WSW,246,0.0,0.0,80,0.00,,,0.00,LWC V2.00 B2112,2013-05-18 11:16:00,
2013-05-18 04:21:00,46.7,41.5,29.87,WSW,246,0.0,0.0,82,0.00,,,0.00,LWC V2.00 B2112,2013-05-18 11:21:00,
2013-05-18 04:26:00,46.4,40.9,29.87,WSW,246,0.0,0.0,81,0.00,,,0.00,LWC V2.00 B2112,2013-05-18 11:26:00,
2013-05-18 04:31:00,46.4,41.2,29.88,WSW,246,0.0,0.0,82,0.00,,,0.00,LWC V2.00 B2112,2013-05-18 11:31:00,
2013-05-18 04:36:00,46.4,41.2,29.88,WSW,246,0.0,0.0,82,0.00,,,0.00,LWC V2.00 B2112,2013-05-18 11:36:00,
2013-05-18 04:41:00,46.4,40.9,29.88,WSW,246,0.0,0.0,81,0.00,,,0.00,LWC V2.00 B2112,2013-05-18 11:41:00,
2013-05-18 04:46:00,46.5,41.3,29.88,WSW,246,0.0,0.0,82,0.00,,,0.00,LWC V2.00 B2112,2013-05-18 11:46:00,
2013-05-18 04:51:00,46.5,41.6,29.88,WSW,246,0.0,0.0,83,0.00,,,0.00,LWC V2.00 B2112,2013-05-18 11:51:00,
2013-05-18 04:56:00,46.5,41.3,29.88,WSW,246,0.0,2.0,82,0.00,,,0.00,LWC V2.00 B2112,2013-05-18 11:56:00,
2013-05-18 05:01:00,46.8,41.0,29.88,WSW,246,0.0,0.0,80,0.00,,,0.00,LWC V2.00 B2112,2013-05-18 12:01:00,
2013-05-18 05:06:00,46.8,41.0,29.88,WSW,246,0.0,0.0,80,0.00,,,0.00,LWC V2.00 B2112,2013-05-18 12:06:00,
2013-05-18 05:11:00,46.8,41.3,29.88,WSW,246,0.0,0.0,81,0.00,,,0.00,LWC V2.00 B2112,2013-05-18 12:11:00,
2013-05-18 05:16:00,47.0,41.8,29.88,WSW,246,0.0,0.0,82,0.00,,,0.00,LWC V2.00 B2112,2013-05-18 12:16:00,
2013-05-18 05:21:00,47.1,41.6,29.88,WSW,246,0.0,4.0,81,0.00,,,0.00,LWC V2.00 B2112,2013-05-18 12:21:00,
2013-05-18 05:26:00,47.1,41.6,29.88,WSW,246,0.0,0.0,81,0.00,,,0.00,LWC V2.00 B2112,2013-05-18 12:26:00,
2013-05-18 05:31:00,47.4,42.2,29.88,WSW,246,0.0,0.0,82,0.00,,,0.00,LWC V2.00 B2112,2013-05-18 12:31:00,
2013-05-18 05:36:00,47.4,42.2,29.88,WSW,246,0.0,0.0,82,0.00,,,0.00,LWC V2.00 B2112,2013-05-18 12:36:00,
2013-05-18 05:41:00,47.4,42.2,29.88,WSW,246,0.0,0.0,82,0.00,,,0.00,LWC V2.00 B2112,2013-05-18 12:41:00,
2013-05-18 05:46:00,47.6,42.4,29.88,WSW,246,0.0,0.0,82,0.00,,,0.00,LWC V2.00 B2112,2013-05-18 12:46:00,
2013-05-18 05:51:00,47.7,42.5,29.88,WSW,246,0.0,0.0,82,0.00,,,0.00,LWC V2.00 B2112,2013-05-18 12:51:00,
2013-05-18 05:56:00,47.7,41.8,29.88,WSW,246,0.0,0.0,80,0.00,,,0.00,LWC V2.00 B2112,2013-05-18 12:56:00,
2013-05-18 06:01:00,48.0,41.1,29.89,WSW,246,0.0,0.0,77,0.00,,,0.00,LWC V2.00 B2112,2013-05-18 13:01:00,
2013-05-18 06:06:00,48.5,42.0,29.89,WSW,246,0.0,0.0,78,0.00,,,0.00,LWC V2.00 B2112,2013-05-18 13:06:00,
2013-05-18 06:11:00,48.8,42.9,29.89,WSW,246,0.0,0.0,80,0.00,,,0.00,LWC V2.00 B2112,2013-05-18 13:11:00,
2013-05-18 06:16:00,48.8,42.6,29.89,WSW,246,0.0,0.0,79,0.00,,,0.00,LWC V2.00 B2112,2013-05-18 13:16:00,
2013-05-18 06:21:00,48.9,43.0,29.89,WSW,246,0.0,0.0,80,0.00,,,0.00,LWC V2.00 B2112,2013-05-18 13:21:00,
2013-05-18 06:26:00,49.1,43.2,29.89,WSW,246,0.0,0.0,80,0.00,,,0.00,LWC V2.00 B2112,2013-05-18 13:26:00,
2013-05-18 06:31:00,49.4,43.2,29.89,WSW,246,0.0,0.0,79,0.00,,,0.00,LWC V2.00 B2112,2013-05-18 13:31:00,
2013-05-18 06:36:00,49.5,43.9,29.89,WSW,246,0.0,0.0,81,0.00,,,0.00,LWC V2.00 B2112,2013-05-18 13:36:00,
2013-05-18 06:41:00,49.6,43.7,29.89,WSW,246,0.0,0.0,80,0.00,,,0.00,LWC V2.00 B2112,2013-05-18 13:41:00,
2013-05-18 06:46:00,49.8,44.2,29.90,WSW,246,0.0,0.0,81,0.00,,,0.00,LWC V2.00 B2112,2013-05-18 13:46:00,
2013-05-18 06:51:00,50.1,43.8,29.90,WSW,246,0.0,0.0,79,0.00,,,0.00,LWC V2.00 B2112,2013-05-18 13:51:00,
2013-05-18 06:56:00,50.7,45.1,29.90,WSW,246,0.0,0.0,81,0.00,,,0.00,LWC V2.00 B2112,2013-05-18 13:56:00,
2013-05-18 07:01:00,51.1,44.8,29.90,SW,217,0.0,0.0,79,0.00,,,0.00,LWC V2.00 B2112,2013-05-18 14:01:00,
2013-05-18 07:06:00,51.6,44.6,29.90,SW,217,0.0,0.0,77,0.00,,,0.00,LWC V2.00 B2112,2013-05-18 14:06:00,
2013-05-18 07:11:00,52.3,46.0,29.90,SW,217,0.0,0.0,79,0.00,,,0.00,LWC V2.00 B2112,2013-05-18 14:11:00,
2013-05-18 07:16:00,52.9,46.2,29.90,SW,217,0.0,0.0,78,0.00,,,0.00,LWC V2.00 B2112,2013-05-18 14:16:00,
2013-05-18 07:21:00,53.6,45.9,29.90,SW,217,0.0,0.0,75,0.00,,,0.00,LWC V2.00 B2112,2013-05-18 14:21:00,
2013-05-18 07:26:00,54.1,43.8,29.90,SW,217,0.0,0.0,68,0.00,,,0.00,LWC V2.00 B2112,2013-05-18 14:26:00,
2013-05-18 07:31:00,54.7,44.3,29.90,SW,217,0.0,0.0,68,0.00,,,0.00,LWC V2.00 B2112,2013-05-18 14:31:00,
2013-05-18 07:36:00,55.6,46.0,29.90,SW,217,0.0,0.0,70,0.00,,,0.00,LWC V2.00 B2112,2013-05-18 14:36:00,
2013-05-18 07:41:00,56.2,45.0,29.90,SW,217,0.0,0.0,66,0.00,,,0.00,LWC V2.00 B2112,2013-05-18 14:41:00,
2013-05-18 07:46:00,56.6,44.2,29.90,SW,217,0.0,0.0,63,0.00,,,0.00,LWC V2.00 B2112,2013-05-18 14:46:00,
2013-05-18 07:51:00,57.8,42.2,29.90,SW,217,0.0,0.0,56,0.00,,,0.00,LWC V2.00 B2112,2013-05-18 14:51:00,
2013-05-18 07:56:00,58.4,38.8,29.90,SW,217,0.0,0.0,48,0.00,,,0.00,LWC V2.00 B2112,2013-05-18 14:56:00,
2013-05-18 08:01:00,58.6,43.4,29.90,SW,217,0.0,1.0,57,0.00,,,0.00,LWC V2.00 B2112,2013-05-18 15:01:00,
2013-05-18 08:06:00,58.6,40.0,29.90,South,185,0.0,0.0,50,0.00,,,0.00,LWC V2.00 B2112,2013-05-18 15:06:00,
2013-05-18 08:11:00,59.2,41.1,29.90,South,179,0.0,1.0,51,0.00,,,0.00,LWC V2.00 B2112,2013-05-18 15:11:00,
2013-05-18 08:16:00,59.3,41.7,29.90,South,179,0.0,0.0,52,0.00,,,0.00,LWC V2.00 B2112,2013-05-18 15:16:00,
2013-05-18 08:21:00,59.6,42.0,29.90,South,179,0.0,0.0,52,0.00,,,0.00,LWC V2.00 B2112,2013-05-18 15:21:00,
2013-05-18 08:26:00,60.2,42.0,29.90,South,179,0.0,0.0,51,0.00,,,0.00,LWC V2.00 B2112,2013-05-18 15:26:00,
2013-05-18 08:31:00,60.2,37.0,29.90,South,179,0.0,0.0,42,0.00,,,0.00,LWC V2.00 B2112,2013-05-18 15:31:00,
2013-05-18 08:36:00,60.2,39.3,29.90,South,179,0.0,0.0,46,0.00,,,0.00,LWC V2.00 B2112,2013-05-18 15:36:00,
2013-05-18 08:41:00,60.5,39.6,29.90,South,179,0.0,0.0,46,0.00,,,0.00,LWC V2.00 B2112,2013-05-18 15:41:00,
2013-05-18 08:46:00,60.1,39.2,29.90,ESE,104,0.0,2.0,46,0.00,,,0.00,LWC V2.00 B2112,2013-05-18 15:46:00,
2013-05-18 08:51:00,60.5,36.7,29.90,ESE,103,0.0,1.0,41,0.00,,,0.00,LWC V2.00 B2112,2013-05-18 15:51:00,
2013-05-18 08:56:00,61.0,37.7,29.90,ESE,103,0.0,0.0,42,0.00,,,0.00,LWC V2.00 B2112,2013-05-18 15:56:00,
2013-05-18 09:01:00,60.9,39.4,29.90,ESE,103,0.0,0.0,45,0.00,,,0.00,LWC V2.00 B2112,2013-05-18 16:01:00,
2013-05-18 09:06:00,61.0,38.9,29.90,ESE,102,0.0,2.0,44,0.00,,,0.00,LWC V2.00 B2112,2013-05-18 16:06:00,
2013-05-18 09:11:00,61.8,40.8,29.90,ESE,102,0.0,0.0,46,0.00,,,0.00,LWC V2.00 B2112,2013-05-18 16:11:00,
2013-05-18 09:16:00,62.6,37.9,29.90,ESE,113,0.0,4.0,40,0.00,,,0.00,LWC V2.00 B2112,2013-05-18 16:16:00,
2013-05-18 09:19:00,63.1,36.4,29.90,ESE,113,0.0,1.0,37,0.00,,,0.00,LWC V2.00 B2112,2013-05-18 16:19:00,
2013-05-18 09:24:00,64.2,38.7,29.90,South,179,0.0,2.0,39,0.00,,,0.00,LWC V2.00 B2112,2013-05-18 16:24:00,
2013-05-18 09:29:00,64.0,42.2,29.90,SE,141,0.0,0.0,45,0.00,,,0.00,LWC V2.00 B2112,2013-05-18 16:29:00,
2013-05-18 09:35:00,64.7,41.1,29.90,SE,124,2.0,2.0,42,0.00,,,0.00,LWC V2.00 B2112,2013-05-18 16:35:00,
2013-05-18 09:40:00,64.5,42.1,29.90,SE,127,0.0,4.0,44,0.00,,,0.00,LWC V2.00 B2112,2013-05-18 16:40:00,
2013-05-18 09:45:00,65.0,41.3,29.90,ESE,110,0.0,0.0,42,0.00,,,0.00,LWC V2.00 B2112,2013-05-18 16:45:00,
2013-05-18 09:50:00,65.6,40.0,29.90,ESE,110,0.0,0.0,39,0.00,,,0.00,LWC V2.00 B2112,2013-05-18 16:50:00,
2013-05-18 09:55:00,65.2,38.9,29.90,SE,124,2.0,4.0,38,0.00,,,0.00,LWC V2.00 B2112,2013-05-18 16:55:00,
2013-05-18 10:00:00,65.5,41.2,29.89,East,97,0.0,1.0,41,0.00,,,0.00,LWC V2.00 B2112,2013-05-18 17:00:00,
2013-05-18 10:05:00,64.7,37.1,29.89,SE,128,2.0,13.0,36,0.00,,,0.00,LWC V2.00 B2112,2013-05-18 17:05:00,
2013-05-18 10:10:00,64.5,37.6,29.89,SE,140,4.0,6.0,37,0.00,,,0.00,LWC V2.00 B2112,2013-05-18 17:10:00,
2013-05-18 10:15:00,64.5,39.0,29.89,SE,137,2.0,7.0,39,0.00,,,0.00,LWC V2.00 B2112,2013-05-18 17:15:00,
2013-05-18 10:20:00,64.7,37.8,29.89,East,95,0.0,6.0,37,0.00,,,0.00,LWC V2.00 B2112,2013-05-18 17:20:00,
2013-05-18 10:25:00,65.2,38.9,29.89,SE,140,0.0,2.0,38,0.00,,,0.00,LWC V2.00 B2112,2013-05-18 17:25:00,
2013-05-18 10:30:00,65.0,35.2,29.89,SE,133,0.0,1.0,33,0.00,,,0.00,LWC V2.00 B2112,2013-05-18 17:30:00,
2013-05-18 10:35:00,66.0,41.6,29.89,SE,130,0.0,4.0,41,0.00,,,0.00,LWC V2.00 B2112,2013-05-18 17:35:00,
2013-05-18 10:40:00,66.1,35.4,29.89,SE,138,0.0,2.0,32,0.00,,,0.00,LWC V2.00 B2112,2013-05-18 17:40:00,
2013-05-18 10:45:00,66.4,36.4,29.89,WSW,256,0.0,0.0,33,0.00,,,0.00,LWC V2.00 B2112,2013-05-18 17:45:00,
2013-05-18 10:50:00,66.9,39.8,29.89,NE,48,0.0,2.0,37,0.00,,,0.00,LWC V2.00 B2112,2013-05-18 17:50:00,
2013-05-18 10:55:00,66.8,39.0,29.89,NW,323,0.0,4.0,36,0.00,,,0.00,LWC V2.00 B2112,2013-05-18 17:55:00,
2013-05-18 11:00:00,66.0,36.8,29.89,ESE,114,0.0,4.0,34,0.00,,,0.00,LWC V2.00 B2112,2013-05-18 18:00:00,
2013-05-18 11:05:00,66.0,37.6,29.89,East,97,6.0,8.0,35,0.00,,,0.00,LWC V2.00 B2112,2013-05-18 18:05:00,
2013-05-18 11:10:00,65.5,34.9,29.89,SSE,151,0.0,4.0,32,0.00,,,0.00,LWC V2.00 B2112,2013-05-18 18:10:00,
2013-05-18 11:15:00,65.6,35.7,29.89,SE,130,4.0,8.0,33,0.00,,,0.00,LWC V2.00 B2112,2013-05-18 18:15:00,
2013-05-18 11:20:00,65.5,37.1,29.89,West,281,0.0,0.0,35,0.00,,,0.00,LWC V2.00 B2112,2013-05-18 18:20:00,
2013-05-18 11:25:00,66.0,37.6,29.89,ESE,117,6.0,6.0,35,0.00,,,0.00,LWC V2.00 B2112,2013-05-18 18:25:00,
2013-05-18 11:30:00,66.8,36.8,29.89,East,79,1.0,2.0,33,0.00,,,0.00,LWC V2.00 B2112,2013-05-18 18:30:00,
2013-05-18 11:35:00,66.9,38.4,29.89,ESE,123,6.0,8.0,35,0.00,,,0.00,LWC V2.00 B2112,2013-05-18 18:35:00,
2013-05-18 11:40:00,67.4,34.9,29.89,East,80,2.0,7.0,30,0.00,,,0.00,LWC V2.00 B2112,2013-05-18 18:40:00,
2013-05-18 11:45:00,68.1,38.7,29.89,East,82,0.0,1.0,34,0.00,,,0.00,LWC V2.00 B2112,2013-05-18 18:45:00,
2013-05-18 11:50:00,67.9,35.3,29.89,East,82,6.0,6.0,30,0.00,,,0.00,LWC V2.00 B2112,2013-05-18 18:50:00,
2013-05-18 11:55:00,66.9,33.6,29.89,West,275,2.0,10.0,29,0.00,,,0.00,LWC V2.00 B2112,2013-05-18 18:55:00,
2013-05-18 12:00:00,65.8,34.3,29.89,West,268,11.0,11.0,31,0.00,,,0.00,LWC V2.00 B2112,2013-05-18 19:00:00,
2013-05-18 12:05:00,65.2,34.6,29.89,West,271,10.0,10.0,32,0.00,,,0.00,LWC V2.00 B2112,2013-05-18 19:05:00,
2013-05-18 12:10:00,64.8,30.9,29.89,West,281,9.0,11.0,28,0.00,,,0.00,LWC V2.00 B2112,2013-05-18 19:10:00,
2013-05-18 12:15:00,65.0,32.0,29.89,WSW,241,6.0,9.0,29,0.00,,,0.00,LWC V2.00 B2112,2013-05-18 19:15:00,
2013-05-18 12:20:00,65.3,35.5,29.89,SW,215,6.0,10.0,33,0.00,,,0.00,LWC V2.00 B2112,2013-05-18 19:20:00,
2013-05-18 12:25:00,66.0,33.7,29.89,WSW,237,2.0,8.0,30,0.00,,,0.00,LWC V2.00 B2112,2013-05-18 19:25:00,
2013-05-18 12:30:00,66.6,34.2,29.89,NW,309,8.0,8.0,30,0.00,,,0.00,LWC V2.00 B2112,2013-05-18 19:30:00,
2013-05-18 12:35:00,66.8,35.2,29.89,WSW,240,0.0,1.0,31,0.00,,,0.00,LWC V2.00 B2112,2013-05-18 19:35:00,
2013-05-18 12:40:00,66.8,39.0,29.89,East,88,4.0,7.0,36,0.00,,,0.00,LWC V2.00 B2112,2013-05-18 19:40:00,
2013-05-18 12:45:00,66.6,33.3,29.89,NW,308,7.0,10.0,29,0.00,,,0.00,LWC V2.00 B2112,2013-05-18 19:45:00,
2013-05-18 12:50:00,66.4,31.4,29.89,NW,304,8.0,10.0,27,0.00,,,0.00,LWC V2.00 B2112,2013-05-18 19:50:00,
2013-05-18 12:55:00,66.6,32.5,29.89,NW,316,0.0,1.0,28,0.00,,,0.00,LWC V2.00 B2112,2013-05-18 19:55:00,
2013-05-18 13:00:00,67.3,33.1,29.89,SE,143,0.0,1.0,28,0.00,,,0.00,LWC V2.00 B2112,2013-05-18 20:00:00,
2013-05-18 13:05:00,68.3,35.7,29.89,East,99,0.0,4.0,30,0.00,,,0.00,LWC V2.00 B2112,2013-05-18 20:05:00,
2013-05-18 13:10:00,68.6,32.3,29.89,SSE,152,1.0,6.0,26,0.00,,,0.00,LWC V2.00 B2112,2013-05-18 20:10:00,
2013-05-18 13:15:00,68.1,32.9,29.89,ESE,106,0.0,2.0,27,0.00,,,0.00,LWC V2.00 B2112,2013-05-18 20:15:00,
2013-05-18 13:20:00,68.3,33.9,29.89,SE,133,1.0,2.0,28,0.00,,,0.00,LWC V2.00 B2112,2013-05-18 20:20:00,
2013-05-18 13:25:00,68.8,32.5,29.89,NNW,333,0.0,8.0,26,0.00,,,0.00,LWC V2.00 B2112,2013-05-18 20:25:00,
2013-05-18 13:30:00,69.3,32.9,29.89,NNW,340,4.0,6.0,26,0.00,,,0.00,LWC V2.00 B2112,2013-05-18 20:30:00,
2013-05-18 13:35:00,68.3,37.3,29.89,NW,313,8.0,8.0,32,0.00,,,0.00,LWC V2.00 B2112,2013-05-18 20:35:00,
2013-05-18 13:40:00,68.3,32.1,29.89,NNW,344,0.0,7.0,26,0.00,,,0.00,LWC V2.00 B2112,2013-05-18 20:40:00,
2013-05-18 13:45:00,67.6,32.4,29.89,West,261,8.0,9.0,27,0.00,,,0.00,LWC V2.00 B2112,2013-05-18 20:45:00,
2013-05-18 13:50:00,67.3,33.9,29.89,NW,306,4.0,9.0,29,0.00,,,0.00,LWC V2.00 B2112,2013-05-18 20:50:00,
2013-05-18 13:55:00,66.8,31.7,29.89,West,272,9.0,10.0,27,0.00,,,0.00,LWC V2.00 B2112,2013-05-18 20:55:00,
2013-05-18 14:00:00,66.8,30.8,29.89,WNW,298,10.0,10.0,26,0.00,,,0.00,LWC V2.00 B2112,2013-05-18 21:00:00,
2013-05-18 14:05:00,67.1,32.9,29.89,NW,311,14.0,15.0,28,0.00,,,0.00,LWC V2.00 B2112,2013-05-18 21:05:00,
2013-05-18 14:10:00,66.6,31.6,29.89,NW,312,10.0,10.0,27,0.00,,,0.00,LWC V2.00 B2112,2013-05-18 21:10:00,
2013-05-18 14:15:00,66.6,33.3,29.89,WSW,256,6.0,9.0,29,0.00,,,0.00,LWC V2.00 B2112,2013-05-18 21:15:00,
2013-05-18 14:20:00,66.6,32.5,29.89,West,267,6.0,6.0,28,0.00,,,0.00,LWC V2.00 B2112,2013-05-18 21:20:00,
2013-05-18 14:25:00,65.8,30.9,29.89,NW,319,14.0,15.0,27,0.00,,,0.00,LWC V2.00 B2112,2013-05-18 21:25:00,
2013-05-18 14:30:00,65.6,30.7,29.90,West,271,6.0,11.0,27,0.00,,,0.00,LWC V2.00 B2112,2013-05-18 21:30:00,
2013-05-18 14:35:00,65.2,32.1,29.90,WSW,243,10.0,17.0,29,0.00,,,0.00,LWC V2.00 B2112,2013-05-18 21:35:00,
2013-05-18 14:40:00,65.2,32.1,29.90,NW,313,7.0,15.0,29,0.00,,,0.00,LWC V2.00 B2112,2013-05-18 21:40:00,
2013-05-18 14:45:00,65.0,32.8,29.91,WSW,250,8.0,18.0,30,0.00,,,0.00,LWC V2.00 B2112,2013-05-18 21:45:00,
2013-05-18 14:50:00,65.0,35.9,29.91,North,352,0.0,1.0,34,0.00,,,0.00,LWC V2.00 B2112,2013-05-18 21:50:00,
2013-05-18 14:55:00,65.2,34.6,29.91,North,350,8.0,9.0,32,0.00,,,0.00,LWC V2.00 B2112,2013-05-18 21:55:00,
2013-05-18 15:00:00,65.0,32.8,29.91,NNE,14,7.0,20.0,30,0.00,,,0.00,LWC V2.00 B2112,2013-05-18 22:00:00,
2013-05-18 15:05:00,65.2,33.0,29.91,North,354,14.0,16.0,30,0.00,,,0.00,LWC V2.00 B2112,2013-05-18 22:05:00,
2013-05-18 15:10:00,65.3,33.9,29.91,NNW,340,6.0,8.0,31,0.00,,,0.00,LWC V2.00 B2112,2013-05-18 22:10:00,
2013-05-18 15:15:00,65.3,32.2,29.91,WNW,282,6.0,14.0,29,0.00,,,0.00,LWC V2.00 B2112,2013-05-18 22:15:00,
2013-05-18 15:20:00,65.5,34.9,29.91,NW,304,9.0,10.0,32,0.00,,,0.00,LWC V2.00 B2112,2013-05-18 22:20:00,
2013-05-18 15:25:00,65.6,34.9,29.91,North,356,9.0,10.0,32,0.00,,,0.00,LWC V2.00 B2112,2013-05-18 22:25:00,
2013-05-18 15:30:00,66.0,32.0,29.91,NW,326,8.0,18.0,28,0.00,,,0.00,LWC V2.00 B2112,2013-05-18 22:30:00,
2013-05-18 15:35:00,66.1,32.9,29.91,NNW,342,8.0,14.0,29,0.00,,,0.00,LWC V2.00 B2112,2013-05-18 22:35:00,
2013-05-18 15:40:00,66.6,31.6,29.91,ENE,61,2.0,10.0,27,0.00,,,0.00,LWC V2.00 B2112,2013-05-18 22:40:00,
2013-05-18 15:45:00,66.9,35.3,29.91,WNW,299,10.0,13.0,31,0.00,,,0.00,LWC V2.00 B2112,2013-05-18 22:45:00,
2013-05-18 15:50:00,67.3,35.6,29.91,ESE,110,2.0,8.0,31,0.00,,,0.00,LWC V2.00 B2112,2013-05-18 22:50:00,
2013-05-18 15:55:00,67.6,32.4,29.91,NW,326,0.0,8.0,27,0.00,,,0.00,LWC V2.00 B2112,2013-05-18 22:55:00,
2013-05-18 16:00:00,67.3,32.2,29.91,WSW,244,10.0,17.0,27,0.00,,,0.00,LWC V2.00 B2112,2013-05-18 23:00:00,
2013-05-18 16:05:00,66.1,32.0,29.91,West,272,13.0,17.0,28,0.00,,,0.00,LWC V2.00 B2112,2013-05-18 23:05:00,
2013-05-18 16:10:00,65.6,31.6,29.91,West,278,13.0,16.0,28,0.00,,,0.00,LWC V2.00 B2112,2013-05-18 23:10:00,
2013-05-18 16:15:00,65.6,30.7,29.92,WNW,285,6.0,16.0,27,0.00,,,0.00,LWC V2.00 B2112,2013-05-18 23:15:00,
2013-05-18 16:20:00,66.1,32.9,29.92,NNW,344,7.0,9.0,29,0.00,,,0.00,LWC V2.00 B2112,2013-05-18 23:20:00,
2013-05-18 16:25:00,66.6,31.6,29.92,North,353,8.0,16.0,27,0.00,,,0.00,LWC V2.00 B2112,2013-05-18 23:25:00,
2013-05-18 16:30:00,66.8,30.8,29.92,ENE,66,11.0,11.0,26,0.00,,,0.00,LWC V2.00 B2112,2013-05-18 23:30:00,
2013-05-18 16:35:00,66.9,30.9,29.92,West,277,6.0,15.0,26,0.00,,,0.00,LWC V2.00 B2112,2013-05-18 23:35:00,
2013-05-18 16:40:00,66.9,34.5,29.92,North,0,2.0,11.0,30,0.00,,,0.00,LWC V2.00 B2112,2013-05-18 23:40:00,
2013-05-18 16:45:00,66.9,32.7,29.92,WNW,299,14.0,14.0,28,0.00,,,0.00,LWC V2.00 B2112,2013-05-18 23:45:00,
2013-05-18 16:50:00,66.6,32.5,29.92,NNW,340,0.0,9.0,28,0.00,,,0.00,LWC V2.00 B2112,2013-05-18 23:50:00,
2013-05-18 16:55:00,66.1,32.9,29.92,NNW,332,8.0,10.0,29,0.00,,,0.00,LWC V2.00 B2112,2013-05-18 23:55:00,
2013-05-18 17:00:00,66.0,32.0,29.93,West,264,8.0,13.0,28,0.00,,,0.00,LWC V2.00 B2112,2013-05-19 00:00:00,
2013-05-18 17:05:00,66.3,33.1,29.93,North,356,0.0,7.0,29,0.00,,,0.00,LWC V2.00 B2112,2013-05-19 00:05:00,
2013-05-18 17:10:00,66.4,31.4,29.93,NW,322,7.0,7.0,27,0.00,,,0.00,LWC V2.00 B2112,2013-05-19 00:10:00,
2013-05-18 17:15:00,66.3,34.8,29.93,NNW,343,7.0,14.0,31,0.00,,,0.00,LWC V2.00 B2112,2013-05-19 00:15:00,
2013-05-18 17:20:00,66.4,35.6,29.93,SE,124,1.0,6.0,32,0.00,,,0.00,LWC V2.00 B2112,2013-05-19 00:20:00,
2013-05-18 17:25:00,66.4,34.8,29.93,NW,323,8.0,11.0,31,0.00,,,0.00,LWC V2.00 B2112,2013-05-19 00:25:00,
2013-05-18 17:30:00,66.1,32.0,29.93,West,272,2.0,9.0,28,0.00,,,0.00,LWC V2.00 B2112,2013-05-19 00:30:00,
2013-05-18 17:35:00,66.1,33.8,29.93,NNW,329,6.0,17.0,30,0.00,,,0.00,LWC V2.00 B2112,2013-05-19 00:35:00,
2013-05-18 17:40:00,65.3,33.1,29.93,NW,312,9.0,13.0,30,0.00,,,0.00,LWC V2.00 B2112,2013-05-19 00:40:00,
2013-05-18 17:45:00,65.5,34.1,29.94,NNW,329,8.0,13.0,31,0.00,,,0.00,LWC V2.00 B2112,2013-05-19 00:45:00,
2013-05-18 17:50:00,65.3,34.7,29.94,North,359,2.0,14.0,32,0.00,,,0.00,LWC V2.00 B2112,2013-05-19 00:50:00,
2013-05-18 17:55:00,65.5,34.9,29.94,NNW,347,9.0,15.0,32,0.00,,,0.00,LWC V2.00 B2112,2013-05-19 00:55:00,
2013-05-18 18:00:00,65.3,34.7,29.94,North,349,1.0,6.0,32,0.00,,,0.00,LWC V2.00 B2112,2013-05-19 01:00:00,
2013-05-18 18:05:00,65.3,34.7,29.94,WNW,292,8.0,15.0,32,0.00,,,0.00,LWC V2.00 B2112,2013-05-19 01:05:00,
2013-05-18 18:10:00,65.2,33.8,29.94,West,272,4.0,10.0,31,0.00,,,0.00,LWC V2.00 B2112,2013-05-19 01:10:00,
2013-05-18 18:15:00,64.7,34.9,29.94,NNW,328,9.0,10.0,33,0.00,,,0.00,LWC V2.00 B2112,2013-05-19 01:15:00,
2013-05-18 18:20:00,64.5,34.0,29.94,NNW,347,9.0,10.0,32,0.00,,,0.00,LWC V2.00 B2112,2013-05-19 01:20:00,
2013-05-18 18:25:00,64.2,33.7,29.94,NW,320,9.0,11.0,32,0.00,,,0.00,LWC V2.00 B2112,2013-05-19 01:25:00,
2013-05-18 18:30:00,64.2,34.5,29.95,North,357,9.0,11.0,33,0.00,,,0.00,LWC V2.00 B2112,2013-05-19 01:30:00,
2013-05-18 18:35:00,64.2,32.9,29.95,NW,304,10.0,11.0,31,0.00,,,0.00,LWC V2.00 B2112,2013-05-19 01:35:00,
2013-05-18 18:40:00,63.9,33.5,29.95,North,352,11.0,17.0,32,0.00,,,0.00,LWC V2.00 B2112,2013-05-19 01:40:00,
2013-05-18 18:45:00,63.9,35.0,29.95,NNW,340,7.0,7.0,34,0.00,,,0.00,LWC V2.00 B2112,2013-05-19 01:45:00,
2013-05-18 18:50:00,63.5,33.9,29.95,WNW,288,7.0,10.0,33,0.00,,,0.00,LWC V2.00 B2112,2013-05-19 01:50:00,
2013-05-18 18:55:00,63.5,34.6,29.95,North,10,2.0,8.0,34,0.00,,,0.00,LWC V2.00 B2112,2013-05-19 01:55:00,
2013-05-18 19:00:00,62.7,35.4,29.96,NNW,332,6.0,11.0,36,0.00,,,0.00,LWC V2.00 B2112,2013-05-19 02:00:00,
2013-05-18 19:05:00,62.3,35.7,29.96,North,353,10.0,14.0,37,0.00,,,0.00,LWC V2.00 B2112,2013-05-19 02:05:00,
2013-05-18 19:10:00,62.0,36.8,29.96,NW,320,2.0,6.0,39,0.00,,,0.00,LWC V2.00 B2112,2013-05-19 02:10:00,
2013-05-18 19:15:00,61.8,35.3,29.96,WNW,301,0.0,11.0,37,0.00,,,0.00,LWC V2.00 B2112,2013-05-19 02:15:00,
2013-05-18 19:20:00,61.6,35.7,29.96,WNW,301,0.0,0.0,38,0.00,,,0.00,LWC V2.00 B2112,2013-05-19 02:20:00,
2013-05-18 19:25:00,61.3,36.8,29.96,ENE,68,6.0,8.0,40,0.00,,,0.00,LWC V2.00 B2112,2013-05-19 02:25:00,
2013-05-18 19:30:00,61.2,35.4,29.97,WNW,301,4.0,15.0,38,0.00,,,0.00,LWC V2.00 B2112,2013-05-19 02:30:00,
2013-05-18 19:35:00,61.0,36.5,29.97,South,178,6.0,7.0,40,0.00,,,0.00,LWC V2.00 B2112,2013-05-19 02:35:00,
2013-05-18 19:40:00,60.9,35.1,29.97,NNW,336,9.0,10.0,38,0.00,,,0.00,LWC V2.00 B2112,2013-05-19 02:40:00,
2013-05-18 19:45:00,60.7,35.6,29.97,NW,312,0.0,4.0,39,0.00,,,0.00,LWC V2.00 B2112,2013-05-19 02:45:00,
2013-05-18 19:50:00,60.5,35.4,29.97,NW,306,1.0,1.0,39,0.00,,,0.00,LWC V2.00 B2112,2013-05-19 02:50:00,
2013-05-18 19:55:00,60.4,36.0,29.97,North,1,4.0,4.0,40,0.00,,,0.00,LWC V2.00 B2112,2013-05-19 02:55:00,
2013-05-18 20:00:00,60.1,36.3,29.98,NW,325,0.0,1.0,41,0.00,,,0.00,LWC V2.00 B2112,2013-05-19 03:00:00,
2013-05-18 20:05:00,59.8,36.1,29.98,North,359,0.0,2.0,41,0.00,,,0.00,LWC V2.00 B2112,2013-05-19 03:05:00,
2013-05-18 20:10:00,59.6,35.9,29.98,ENE,59,4.0,4.0,41,0.00,,,0.00,LWC V2.00 B2112,2013-05-19 03:10:00,
2013-05-18 20:15:00,58.9,38.2,29.98,NW,309,0.0,4.0,46,0.00,,,0.00,LWC V2.00 B2112,2013-05-19 03:15:00,
2013-05-18 20:20:00,58.0,38.4,29.98,NW,311,0.0,0.0,48,0.00,,,0.00,LWC V2.00 B2112,2013-05-19 03:20:00,
2013-05-18 20:25:00,57.6,35.8,29.98,NW,311,0.0,2.0,44,0.00,,,0.00,LWC V2.00 B2112,2013-05-19 03:25:00,
2013-05-18 20:30:00,57.6,35.3,29.99,ESE,103,2.0,8.0,43,0.00,,,0.00,LWC V2.00 B2112,2013-05-19 03:30:00,
2013-05-18 20:35:00,57.6,35.8,29.99,NNE,31,0.0,4.0,44,0.00,,,0.00,LWC V2.00 B2112,2013-05-19 03:35:00,
2013-05-18 20:40:00,57.3,39.3,29.99,NW,309,0.0,0.0,51,0.00,,,0.00,LWC V2.00 B2112,2013-05-19 03:40:00,
2013-05-18 20:45:00,57.5,35.2,30.00,NNW,333,2.0,6.0,43,0.00,,,0.00,LWC V2.00 B2112,2013-05-19 03:45:00,
2013-05-18 20:50:00,56.9,39.9,30.00,NNW,328,0.0,0.0,53,0.00,,,0.00,LWC V2.00 B2112,2013-05-19 03:50:00,
2013-05-18 20:55:00,55.9,38.5,30.00,North,352,0.0,2.0,52,0.00,,,0.00,LWC V2.00 B2112,2013-05-19 03:55:00,
2013-05-18 21:00:00,55.3,39.9,30.01,North,352,0.0,0.0,56,0.00,,,0.00,LWC V2.00 B2112,2013-05-19 04:00:00,
2013-05-18 21:01:00,55.1,39.7,30.01,North,352,0.0,0.0,56,0.00,,,0.00,LWC V2.00 B2112,2013-05-19 04:01:00,
2013-05-18 21:06:00,54.5,39.1,30.01,North,352,0.0,0.0,56,0.00,,,0.00,LWC V2.00 B2112,2013-05-19 04:06:00,
2013-05-18 21:11:00,53.9,39.0,30.01,North,352,0.0,0.0,57,0.00,,,0.00,LWC V2.00 B2112,2013-05-19 04:11:00,
2013-05-18 21:16:00,53.3,39.8,30.01,North,352,0.0,0.0,60,0.00,,,0.00,LWC V2.00 B2112,2013-05-19 04:16:00,
2013-05-18 21:21:00,52.5,38.6,30.01,North,352,2.0,2.0,59,0.00,,,0.00,LWC V2.00 B2112,2013-05-19 04:21:00,
2013-05-18 21:26:00,52.2,39.2,30.01,WSW,246,0.0,0.0,61,0.00,,,0.00,LWC V2.00 B2112,2013-05-19 04:26:00,
2013-05-18 21:31:00,51.9,40.1,30.02,WSW,246,0.0,0.0,64,0.00,,,0.00,LWC V2.00 B2112,2013-05-19 04:31:00,
2013-05-18 21:36:00,51.6,38.2,30.02,WSW,246,0.0,0.0,60,0.00,,,0.00,LWC V2.00 B2112,2013-05-19 04:36:00,
2013-05-18 21:41:00,51.3,39.1,30.02,South,175,1.0,1.0,63,0.00,,,0.00,LWC V2.00 B2112,2013-05-19 04:41:00,
2013-05-18 21:46:00,51.7,38.3,30.03,East,90,0.0,0.0,60,0.00,,,0.00,LWC V2.00 B2112,2013-05-19 04:46:00,
2013-05-18 21:51:00,51.3,39.1,30.03,East,90,0.0,0.0,63,0.00,,,0.00,LWC V2.00 B2112,2013-05-19 04:51:00,
2013-05-18 21:56:00,50.8,40.2,30.03,East,90,0.0,0.0,67,0.00,,,0.00,LWC V2.00 B2112,2013-05-19 04:56:00,
2013-05-18 22:01:00,50.2,39.7,30.03,East,90,0.0,0.0,67,0.00,,,0.00,LWC V2.00 B2112,2013-05-19 05:01:00,
2013-05-18 22:06:00,49.8,40.0,30.03,East,90,0.0,0.0,69,0.00,,,0.00,LWC V2.00 B2112,2013-05-19 05:06:00,
2013-05-18 22:11:00,49.2,39.8,30.03,East,90,0.0,0.0,70,0.00,,,0.00,LWC V2.00 B2112,2013-05-19 05:11:00,
2013-05-18 22:16:00,48.9,39.2,30.04,East,90,0.0,0.0,69,0.00,,,0.00,LWC V2.00 B2112,2013-05-19 05:16:00,
2013-05-18 22:21:00,48.6,39.3,30.04,East,90,0.0,0.0,70,0.00,,,0.00,LWC V2.00 B2112,2013-05-19 05:21:00,
2013-05-18 22:26:00,48.5,39.5,30.04,East,90,0.0,0.0,71,0.00,,,0.00,LWC V2.00 B2112,2013-05-19 05:26:00,
2013-05-18 22:31:00,48.3,39.3,30.05,East,90,0.0,0.0,71,0.00,,,0.00,LWC V2.00 B2112,2013-05-19 05:31:00,
2013-05-18 22:36:00,48.0,39.8,30.05,East,90,0.0,0.0,73,0.00,,,0.00,LWC V2.00 B2112,2013-05-19 05:36:00,
2013-05-18 22:41:00,47.7,39.5,30.05,East,90,0.0,0.0,73,0.00,,,0.00,LWC V2.00 B2112,2013-05-19 05:41:00,
2013-05-18 22:46:00,47.6,39.7,30.05,East,90,0.0,0.0,74,0.00,,,0.00,LWC V2.00 B2112,2013-05-19 05:46:00,
2013-05-18 22:51:00,47.4,39.9,30.05,East,90,0.0,0.0,75,0.00,,,0.00,LWC V2.00 B2112,2013-05-19 05:51:00,
2013-05-18 22:56:00,47.3,39.8,30.05,East,90,0.0,0.0,75,0.00,,,0.00,LWC V2.00 B2112,2013-05-19 05:56:00,
2013-05-18 23:01:00,47.1,38.9,30.06,East,90,0.0,0.0,73,0.00,,,0.00,LWC V2.00 B2112,2013-05-19 06:01:00,
2013-05-18 23:06:00,47.3,39.1,30.06,East,90,0.0,0.0,73,0.00,,,0.00,LWC V2.00 B2112,2013-05-19 06:06:00,
2013-05-18 23:11:00,47.3,39.1,30.06,East,90,0.0,0.0,73,0.00,,,0.00,LWC V2.00 B2112,2013-05-19 06:11:00,
2013-05-18 23:16:00,47.6,38.7,30.07,East,90,0.0,0.0,71,0.00,,,0.00,LWC V2.00 B2112,2013-05-19 06:16:00,
2013-05-18 23:21:00,47.6,39.4,30.07,East,90,0.0,1.0,73,0.00,,,0.00,LWC V2.00 B2112,2013-05-19 06:21:00,
2013-05-18 23:26:00,47.6,39.0,30.07,SSE,157,0.0,2.0,72,0.00,,,0.00,LWC V2.00 B2112,2013-05-19 06:26:00,
2013-05-18 23:31:00,48.0,38.7,30.07,SSE,157,0.0,0.0,70,0.00,,,0.00,LWC V2.00 B2112,2013-05-19 06:31:00,
2013-05-18 23:36:00,48.0,39.4,30.07,SSE,161,0.0,0.0,72,0.00,,,0.00,LWC V2.00 B2112,2013-05-19 06:36:00,
2013-05-18 23:41:00,47.7,39.1,30.07,SSE,161,0.0,0.0,72,0.00,,,0.00,LWC V2.00 B2112,2013-05-19 06:41:00,
2013-05-18 23:46:00,47.7,39.1,30.07,SSE,160,0.0,0.0,72,0.00,,,0.00,LWC V2.00 B2112,2013-05-19 06:46:00,
2013-05-18 23:51:00,47.4,39.5,30.07,SSE,160,0.0,0.0,74,0.00,,,0.00,LWC V2.00 B2112,2013-05-19 06:51:00,
2013-05-18 23:56:00,47.6,39.4,30.07,SSE,161,0.0,4.0,73,0.00,,,0.00,LWC V2.00 B2112,2013-05-19 06:56:00,